Location: Vinland
(47.7731°N, 122.6974°W)
Time: 19:00:14
(UTC+00:00)

Vanguard 1 Rocket - Pass Details

Date: 23 March 2023
Orbit: 654 x 4221 km, 34.3° (Epoch: 29 May)

Event Time Altitude Azimuth Distance (km) Brightness Sun altitude
Rises 05:59:33 0° 214° (SW) 8,420 12.2 -32.8°
Reaches altitude 10° 06:06:51 10° 205° (SSW) 7,185 11.7 -33.6°
Enters shadow 06:15:16 22° 190° (S) 5,754 11.0 -34.5°
